Content
SEND FEEDBACK

Daily
Averages
Monthly
Summary
United States of America

STILLWATER, OKLAHOMA


Home > North America > United States > Oklahoma
Elevation: 875 feet     Latitude: 36 07N     Longitude: 097 06W

WEATHER
 
SELECT A DAY
Number of Records: 174,190;   Date Range: 3/22/95 - 9/20/14
 
SHARE

PRINT THIS DATA

[ ← Previous Day ]
WEATHER ALMANAC - FEBRUARY 18, 2013
[ Next Day → ]
[ °C ]   °F
Weather ElementAverageHighLow
Temperature51.3 °F57.9 °F (1:53 am)30.9 °F (11:53 pm)
Dewpoint33.1 °F46.9 °F (7:53 am)24.1 °F (7:53 pm)
Humidity51.4 %76 % (11:53 pm)32 % (3:53 pm)
Barometer29.80 in30.15 in (11:53 pm)29.59 in (4:53 am)
Wind Speed16.7 mph25.3 mph (2:53 am)
Wind Gust39.1 mph (2:53 am)
Weather ElementAverage
Visibility10 mi
Wind DirectionW (272.9 °)

Weather ElementTotal
Precipitation---
Heating Degree Days20.6 (Base 65)
Averaged from 24 records on February 18, 2013
WEATHER CONDITIONS BREAKOUT
WIND DIRECTION BREAKOUT
WEATHER BY HOUR - FEBRUARY 18, 2013
[ °C ]   °F
Local TimeTemperatureDewpointHumidityBarometerVisibilityWind DirectionWind SpeedGust SpeedPrecipitationEventsConditions
1:53 AM57.9 °F37.0 °F46 %29.63 in10.0 miSouth (180°)24.2 mph34.5 mphClear
2:53 AM57.0 °F39.9 °F53 %29.62 in10.0 miSouth (190°)25.3 mph39.1 mphClear
3:53 AM55.0 °F43.0 °F64 %29.60 in10.0 miSouth (180°)20.7 mph34.5 mphClear
4:53 AM55.0 °F45.0 °F69 %29.59 in10.0 miSouth (190°)18.4 mph33.4 mphMostly Cloudy
5:53 AM55.9 °F45.0 °F67 %29.59 in10.0 miSSW (200°)20.7 mph27.6 mphPartly Cloudy
6:53 AM55.9 °F46.0 °F69 %29.59 in10.0 miSSW (200°)23.0 mph29.9 mphClear
7:53 AM55.0 °F46.9 °F74 %29.59 in10.0 miSSW (200°)17.3 mph28.8 mphPartly Cloudy
8:53 AM57.0 °F46.9 °F69 %29.61 in10.0 miSW (220°)21.9 mph32.2 mphOvercast
9:11 AM51.8 °F33.8 °F50 %29.65 in10.0 miWest (280°)20.7 mph32.2 mphOvercast
9:53 AM50.0 °F30.9 °F48 %29.67 in10.0 miWest (280°)13.8 mph21.9 mphOvercast
10:53 AM53.1 °F33.1 °F47 %29.72 in10.0 miNW (320°)21.9 mph27.6 mphClear
11:53 AM54.0 °F32.0 °F43 %29.75 in10.0 miNW (320°)20.7 mph34.5 mphClear
12:53 PM54.0 °F30.9 °F41 %29.79 in10.0 miNNW (340°)21.9 mph36.8 mphScattered Clouds
1:53 PM55.0 °F30.0 °F38 %29.82 in10.0 miNW (320°)17.3 mph32.2 mphPartly Cloudy
2:53 PM57.9 °F28.9 °F33 %29.82 in10.0 miNorth (350°)20.7 mph31.1 mphClear
3:53 PM57.0 °F27.0 °F32 %29.86 in10.0 miNNW (330°)18.4 mph29.9 mphClear
4:53 PM55.0 °F26.1 °F33 %29.90 in10.0 miNW (320°)19.6 mph27.6 mphClear
5:53 PM52.0 °F26.1 °F37 %29.93 in10.0 miNNW (330°)15.0 mph24.2 mphClear
6:53 PM48.9 °F25.0 °F39 %29.98 in10.0 miNNW (340°)9.2 mphClear
7:53 PM46.0 °F24.1 °F42 %30.03 in10.0 miNNW (340°)8.1 mphClear
8:53 PM44.1 °F24.1 °F45 %30.07 in10.0 miNNW (340°)6.9 mphClear
9:53 PM37.9 °F24.1 °F57 %30.12 in10.0 miNorth (360°)6.9 mphClear
10:53 PM36.0 °F24.1 °F62 %30.14 in10.0 miNorth (350°)3.5 mphClear
11:53 PM30.9 °F24.1 °F76 %30.15 in10.0 miENE (70°)5.8 mphClear
Hourly data recorded from KSWO, located miles away from Stillwater, Oklahoma







STORIES FROM OUR PARTNERS